Carlsbad, NM

9:37 PM MDT on June 22, 2017 (GMT -0600)
Cavern City

Weather History for KCNM - November, 2012

Change the Weather History Date:

Monday, November 26, 2012

  Actual Average Record
Temperature  
Mean Temperature 60 °F -  
Max Temperature 77 °F 62 °F 84 °F (1977)
Min Temperature 39 °F 34 °F 10 °F (1980)
Degree Days  
Heating Degree Days 5    
Growing Degree Days 10 (Base 50)    
Moisture  
Dew Point 26 °F    
Average Humidity 33    
Maximum Humidity 58    
Minimum Humidity 12    
Precipitation  
Precipitation 0.00 in - - ()
Sea Level Pressure  
Sea Level Pressure 30.01 in    
Wind  
Wind Speed 8 mph (NNE)    
Max Wind Speed 22 mph    
Max Gust Speed 31 mph    
Visibility 10 miles    
Events      
Averages and records for this station are not official NWS values.
T = Trace of Precipitation, MM = Missing Value Source: NWS Daily Summary

Daily Weather History Graph

Daily Weather History Graph

Search for Another Location

Airport or City:

Trip Planner

Search our weather history database for the weather conditions in past years. The results will help you decide how hot, cold, wet, or windy it might be!

Date:

Astronomy

Nov. 26, 2012 Rise Set
Actual Time 6:36 AM MST 4:52 PM MST
Civil Twilight 6:10 AM MST 5:18 PM MST
Nautical Twilight 5:39 AM MST 5:48 PM MST
Astronomical Twilight 5:10 AM MST 6:18 PM MST
Moon 3:43 PM MST (11/26) 4:52 AM MST (11/26)
Length of Visible Light 11h 08m
Length of Day
10h 15m
Waxing Gibbous, 97% of the Moon is Illuminated
Nov 26
Waxing Gibbous
Nov 28
Full
Dec 6
Last Quarter
Dec 13
New
Dec 19
First Quarter

Hourly Weather History & Observations

Time (MST) Temp. Windchill Dew Point Humidity Pressure Visibility Wind Dir Wind Speed Gust Speed Precip Events Conditions
12:53 AM 55.9 °F - 28.9 °F 36% 29.79 in 10.0 mi WNW 4.6 mph - N/A   Clear
1:53 AM 57.0 °F - 28.9 °F 34% 29.80 in 10.0 mi WSW 12.7 mph - N/A   Clear
2:53 AM 57.0 °F - 30.0 °F 36% 29.82 in 10.0 mi WSW 11.5 mph - N/A   Clear
3:53 AM 57.0 °F - 30.0 °F 36% 29.82 in 10.0 mi WSW 13.8 mph - N/A   Clear
4:53 AM 55.0 °F - 30.0 °F 38% 29.86 in 10.0 mi WSW 11.5 mph - N/A   Clear
5:53 AM 46.9 °F - 27.0 °F 46% 29.90 in 10.0 mi Calm Calm - N/A   Scattered Clouds
6:53 AM 48.0 °F - 27.0 °F 44% 29.92 in 10.0 mi North 6.9 mph - N/A   Clear
7:53 AM 50.0 °F - 27.0 °F 41% 29.96 in 10.0 mi NNE 5.8 mph - N/A   Clear
8:53 AM 55.9 °F - 25.0 °F 30% 29.98 in 10.0 mi North 5.8 mph - N/A   Clear
9:53 AM 63.0 °F - 25.0 °F 24% 29.98 in 10.0 mi NNE 9.2 mph - N/A   Clear
10:53 AM 64.0 °F - 24.1 °F 22% 29.98 in 10.0 mi North 4.6 mph - N/A   Partly Cloudy
11:53 AM 66.9 °F - 23.0 °F 19% 29.95 in 10.0 mi Calm Calm - N/A   Partly Cloudy
12:53 PM 73.9 °F - 21.9 °F 14% 29.91 in 10.0 mi NNE 5.8 mph - N/A   Clear
1:53 PM 77.0 °F - 21.0 °F 12% 29.90 in 10.0 mi NNE 5.8 mph - N/A   Scattered Clouds
2:53 PM 75.9 °F - 19.9 °F 12% 29.91 in 10.0 mi NE 10.4 mph - N/A   Clear
3:53 PM 70.0 °F - 17.1 °F 13% 29.96 in 5.0 mi ENE 21.9 mph 31.1 mph N/A   Haze
4:53 PM 63.0 °F - 25.0 °F 24% 30.03 in 10.0 mi ENE 13.8 mph 25.3 mph N/A   Clear
5:53 PM 57.9 °F - 27.0 °F 31% 30.12 in 10.0 mi ENE 12.7 mph - N/A   Clear
6:53 PM 55.0 °F - 27.0 °F 34% 30.19 in 10.0 mi ENE 11.5 mph 18.4 mph N/A   Clear
7:53 PM 52.0 °F - 28.0 °F 40% 30.25 in 10.0 mi NE 10.4 mph - N/A   Clear
8:53 PM 48.0 °F - 27.0 °F 44% 30.29 in 10.0 mi NE 6.9 mph - N/A   Clear
9:53 PM 46.0 °F 41.9 °F 26.1 °F 46% 30.32 in 10.0 mi NE 8.1 mph - N/A   Clear
10:53 PM 43.0 °F 38.8 °F 26.1 °F 51% 30.35 in 10.0 mi NE 6.9 mph - N/A   Clear
11:53 PM 39.9 °F 34.5 °F 26.1 °F 58% 30.35 in 10.0 mi North 8.1 mph - N/A   Clear